Regional Weather Roundup
Issued by NWS

Home | Current Version | Previous Version | Graphics & Text | Print | Product List | Glossary On
Versions: 1 2 3 4 5 6 7 8 9 10 11 12 13 14 15 16 17 18 19 20 21 22 23 24 25 26 27 28 29 30 31 32 33 34 35 36 37 38 39 40 41 42 43 44 45 46 47 48 49 50
215
ASUS43 KFSD 180502
RWRSD

WEATHER ROUNDUP FOR SOUTH DAKOTA
NATIONAL WEATHER SERVICE SIOUX FALLS SD
1100 PM CST TUE JAN 17 2017

NOTE: "FAIR" INDICATES FEW OR NO CLOUDS BELOW 12,000 FEET WITH NO
SIGNIFICANT WEATHER AND/OR OBSTRUCTIONS TO VISIBILITY.


SDZ001>005-009-010-012>017-180600-
NORTHWEST AND NORTH CENTRAL SOUTH DAKOTA

CITY           SKY/WX    TMP DP  RH WIND       PRES   REMARKS
BUFFALO          N/A     34  20  56 W9        29.75F WCI  27
FAITH            N/A     30  17  58 SW7       29.83F WCI  23
MOBRIDGE       CLOUDY    17   9  70 SE9       29.80S WCI   6
$$

SDZ012>016-024>037-041>051-057-063-072>074-180600-
SOUTHWEST AND SOUTH CENTRAL SOUTH DAKOTA

CITY           SKY/WX    TMP DP  RH WIND       PRES   REMARKS
RAPID CTY ARPT CLOUDY    28  11  48 W3        29.86F
PIERRE         CLOUDY    21  15  78 SW3       29.86F
CUSTER         CLOUDY    33  14  45 W5        29.91F WCI  29
ELLSWORTH AFB  CLOUDY    36  18  48 W8        29.85F
PHILIP         CLOUDY    26  18  71 W10       29.87F WCI  16
PINE RIDGE     CLOUDY    14  10  84 CALM      29.91F
SPEARFISH      FAIR      41  19  42 CALM      29.86F
WINNER         FAIR      34  21  59 SW10      29.89S WCI  26
$$

SDZ004>011-016>023-039-040-180600-
NORTHEAST SOUTH DAKOTA

CITY           SKY/WX    TMP DP  RH WIND       PRES   REMARKS
ABERDEEN       CLOUDY    15  11  83 S8        29.85F WCI   4
WATERTOWN      CLOUDY    20  18  92 S7        29.86F WCI  11
BROOKINGS      CLOUDY    23  22  96 S12       29.90F WCI  12
SISSETON         N/A     34  25  69 S14G25    29.81F WCI  25
$$

SDZ017-020-022-023-036>040-048>070-180600-
SOUTHEAST SOUTH DAKOTA

CITY           SKY/WX    TMP DP  RH WIND       PRES   REMARKS
SIOUX FALLS    CLOUDY    26  25  96 S7        29.96F WCI  18
HURON          CLOUDY    25  25 100 S12       29.88F WCI  14
CHAMBERLAIN    CLOUDY    20  19  94 CALM      29.88F
MITCHELL       CLOUDY    29  27  92 S9        29.92F WCI  20
YANKTON        CLOUDY    27  25  93 SE8       29.97F WCI  18
$$

ABBREVIATIONS USED IN REMARKS
   TC - TEMPERATURE IN CELSIUS
  WCI - WIND CHILL INDEX
   HX - HEAT INDEX
  VSB - VISIBILITY





USA.gov is the U.S. government's official web portal to all federal, state and local government web resources and services.